This demonstration page uses our WeatherBlox Daily Observations layout. Learn more.

Left ArrowRight Arrow

38.83388, -104.82136

Hourly Observations for August 6, 2022

Temp ( °F °C ) Dew Point ( °F °C ) Humidity (%) Winds ( mph kmh ) Pressure ( in mb ) Visibility ( mi km ) Precip ( " mm )
12:54 am 00:54 Mostly Cloudy 77 25 50 10 39 39 N 16 26 29.81 1009 10 16 0.00 0.00
1:54 am 01:54 Partly Cloudy 76 24.4 50 10 40 40 N 17 28 29.81 1010 10 16 0.00 0.00
2:54 am 02:54 Mostly Cloudy 74 23.3 51 10.6 45 45 NNW 14 22 29.83 1010 10 16 0.00 0.00
3:54 am 03:54 Mostly Cloudy 70 21.1 52 11.1 53 53 NW 7 11 29.86 1011 10 16 0.00 0.00
4:54 am 04:54 Mostly Cloudy 70 21.1 52 11.1 53 53 NNW 9 15 29.89 1012 10 16 0.00 0.00
5:54 am 05:54 Partly Cloudy 69 20.6 52 11.1 55 55 NW 9 15 29.93 1013 10 16 0.00 0.00
6:54 am 06:54 Partly Cloudy 69 20.6 54 12.2 59 59 NNW 15 24 29.95 1014 10 16 0.00 0.00
7:54 am 07:54 Partly Cloudy 72 22.2 55 12.8 55 55 NNW 15 24 29.96 1015 10 16 0.00 0.00
8:54 am 08:54 Partly Cloudy 76 24.4 56 13.3 50 50 NNW 13 20 29.95 1014 10 16 0.00 0.00
9:54 am 09:54 Partly Cloudy 79 26.1 55 12.8 44 44 VRB 7 11 29.92 1013 10 16 0.00 0.00
10:54 am 10:54 Partly Cloudy 83 28.3 53 11.7 36 36 VRB 3 6 29.91 1013 10 16 0.00 0.00
11:54 am 11:54 Partly Cloudy 84 28.9 53 11.7 34 34 S 7 11 29.90 1012 10 16 0.00 0.00
12:54 pm 12:54 Partly Cloudy 86 30 54 12.2 33 33 VRB 7 11 29.87 1012 10 16 0.00 0.00
1:54 pm 13:54 Partly Cloudy 88 31.1 52 11.1 29 29 VRB 5 7 29.85 1011 10 16 0.00 0.00
2:54 pm 14:54 Mostly Cloudy 87 30.6 52 11.1 30 30 S 8 13 29.83 1010 10 16 0.00 0.00
3:15 pm 15:15 Mostly Cloudy with Nearby Thunderstorms 88 31.1 51 10.6 28 28 ESE 3 6 29.55 1001 10 16 0.00 0.00
3:54 pm 15:54 Mostly Cloudy with Nearby Thunderstorms 86 30 51 10.6 30 30 SSW 10 17 29.84 1011 10 16 0.00 0.00
4:20 pm 16:20 Mostly Cloudy with Thunderstorms 84 28.9 52 11.1 33 33 W 10 17 29.57 1001 10 16 0.00 0.00
4:39 pm 16:39 Mostly Cloudy 84 28.9 51 10.6 32 32 W 15 24 29.58 1002 10 16 0.00 0.00
4:54 pm 16:54 Mostly Cloudy 84 28.9 52 11.1 33 33 W 10 17 29.84 1011 10 16 0.00 0.00
5:11 pm 17:11 Mostly Cloudy 83 28.3 51 10.6 33 33 WNW 22 35 29.59 1002 10 16 0.00 0.00
5:54 pm 17:54 Mostly Cloudy 81 27.2 56 13.3 42 42 NE 24 39 29.87 1011 10 16 0.00 0.00
6:03 pm 18:03 Mostly Cloudy 79 26.1 57 13.9 47 47 NE 20 31 29.64 1004 10 16 0.00 0.00
6:41 pm 18:41 Mostly Cloudy 74 23.3 59 15 60 60 E 28 44 29.71 1006 10 16 0.00 0.00
6:45 pm 18:45 Mostly Cloudy 72 22.2 59 15 64 64 ENE 26 43 29.74 1007 10 16 0.00 0.00
6:54 pm 18:54 Mostly Cloudy 71 21.7 58 14.4 63 63 ENE 30 48 29.93 1014 10 16 0.00 0.00
7:25 pm 19:25 Mostly Cloudy with Nearby Thunderstorms 73 22.8 58 14.4 59 59 ENE 18 30 29.76 1008 10 16 0.00 0.00
7:41 pm 19:41 Cloudy with Thunderstorms 71 21.7 58 14.4 63 63 ENE 12 19 29.82 1010 10 16 0.00 0.00
7:54 pm 19:54 Cloudy with Thunderstorms 71 21.7 58 14.4 63 63 WSW 15 24 29.99 1016 10 16 0.00 0.00
8:22 pm 20:22 Mostly Cloudy with Nearby Thunderstorms 69 20.6 61 16.1 76 76 W 6 9 29.87 1011 10 16 0.00 0.00
8:45 pm 20:45 Mostly Cloudy 70 21.1 60 15.6 71 71 WNW 5 7 29.85 1011 10 16 0.00 0.00
8:54 pm 20:54 Mostly Cloudy 69 20.6 61 16.1 76 76 N 3 6 29.98 1015 10 16 0.00 0.00
9:54 pm 21:54 Mostly Cloudy 70 21.1 60 15.6 71 71 NNE 8 13 29.96 1015 10 16 0.00 0.00
10:54 pm 22:54 Mostly Cloudy 70 21.1 59 15 68 68 NW 6 9 29.94 1014 10 16 0.00 0.00
11:54 pm 23:54 Mostly Cloudy 70 21.1 59 15 68 68 N 5 7 29.95 1014 10 16 0.00 0.00

Powered by AerisWeather